567  
AXUS43 KGID 181802  
MISGRI  
 
GID CWA HOURLY WEATHER ROUNDUP  
NATIONAL WEATHER SERVICE HASTINGS NE  
1200 PM CST WED JAN 18 2017  
 
NOTE: "FAIR" INDICATES FEW OR NO CLOUDS BELOW 12,000 FEET WITH NO  
SIGNIFICANT WEATHER AND/OR OBSTRUCTIONS TO VISIBILITY.  
   
..SOUTH CENTRAL NEBRASKA
 
 
 
CITY SKY/WX TMP DP RH WIND PRES REMARKS  
GRAND ISLAND CLOUDY 41 35 79 S10 29.96F  
HASTINGS MOSUNNY 39 32 76 S7 29.97F WCI 34  
KEARNEY CLOUDY 39 34 81 S14 29.94F WCI 31  
ORD SUNNY 43 31 62 S9 29.87F  
YORK SUNNY 41 36 81 S12 29.98F  
AURORA SUNNY 44 36 74 SW13G20 29.96F  
LEXINGTON CLOUDY 41 34 75 SE6 29.92F  
HOLDREGE CLOUDY 37 33 84 S8 29.94F WCI 31  
HEBRON SUNNY 46 38 74 S9 30.01F  
   
..NEBRASKA PANHANDLE
 
 
 
CITY SKY/WX TMP DP RH WIND PRES REMARKS  
CHADRON SUNNY 33 22 63 SW9 29.82F WCI 25  
ALLIANCE SUNNY 47 20 34 W12 29.82F  
SCOTTSBLUFF SUNNY 42 20 41 NW7 29.84F  
SIDNEY CLOUDY 45 25 45 W9 29.87F  
   
..WESTERN AND NORTH CENTRAL NEBRASKA
 
 
 
CITY SKY/WX TMP DP RH WIND PRES REMARKS  
VALENTINE SUNNY 49 20 31 SW12 29.81F  
AINSWORTH SUNNY 46 26 45 SW8 29.82F  
ONEILL SUNNY 47 31 53 SW8 29.84F  
BROKEN BOW SUNNY 41 30 65 S9 29.87F  
IMPERIAL SUNNY 37 27 67 W3 29.90F  
NORTH PLATTE SUNNY 38 28 67 S5 29.88F WCI 34  
MCCOOK CLOUDY 34 30 85 W5 29.93F WCI 30  
   
..EASTERN NEBRASKA
 
 
 
CITY SKY/WX TMP DP RH WIND PRES REMARKS  
NORFOLK SUNNY 41 34 76 S17 29.90F  
SO SIOUX CITY SUNNY 45 37 73 S8 29.93F  
TEKAMAH SUNNY 42 36 79 S10 29.96F  
COLUMBUS SUNNY 43 36 75 S17 29.96F  
ALBION SUNNY 40 35 79 S7 29.91F  
OMAHA EPPLEY MOSUNNY 41 34 76 S12 30.00F  
OFFUTT AFB SUNNY 40 40 97 SE6 30.00F  
MILLARD SUNNY 46 37 71 SE6 30.00F  
LINCOLN SUNNY 46 37 71 SW7 30.01F  
NEBRASKA CITY SUNNY 41 35 80 S12 30.04S  
BEATRICE SUNNY 44 37 76 S7 30.02F  
FALLS CITY SUNNY 44 37 76 S12 30.07F  
   
..NORTHERN KANSAS
 
 
 
CITY SKY/WX TMP DP RH WIND PRES REMARKS  
GOODLAND SUNNY 39 31 72 CALM 29.91F  
HILL CITY SUNNY 43 36 76 SW14 29.98F  
NORTON CLEAR 39 32 75 S8 29.93F WCI 34  
PHILLIPSBURG SUNNY 43 36 75 S7 29.98F  
SMITH CENTER MOSUNNY 39 36 87 S10 29.99F WCI 32  
HAYS CLOUDY 46 38 73 SW15 30.00  
RUSSELL CLOUDY 48 37 65 S18 29.98F  
CONCORDIA CLOUDY 43 36 76 S18 30.01F  
SALINA CLOUDY 41 34 76 S15 30.08S  
TOPEKA SUNNY 48 36 63 S12 30.10F  
 
CLICK HERE TO GO TO PREVIOUS BULLETINS.

The Nexlab NE Page
The Nexlab KS Page Main Text Page